Regional Weather Roundup
Issued by NWS

Home | Current Version | Previous Version | Graphics & Text | Print | Product List | Glossary On
Versions: 1 2 3 4 5 6 7 8 9 10 11 12 13 14 15 16 17 18 19 20 21 22 23 24 25 26 27 28 29 30 31 32 33 34 35 36 37 38 39 40 41 42 43 44 45 46 47 48 49 50
000
ASUS43 KMPX 220701
RWRMN
WEATHER ROUNDUP FOR MINNESOTA
NATIONAL WEATHER SERVICE TWIN CITIES/CHANHASSEN MN
200 AM CDT WED MAR 22 2017


NOTE: "FAIR" INDICATES FEW OR NO CLOUDS BELOW 12,000 FEET WITH NO
SIGNIFICANT WEATHER AND/OR OBSTRUCTIONS TO VISIBILITY. N/A MEANS
CURRENT SKY AND/OR WEATHER CONDITIONS ARE NOT AVAILABLE.

MNZ060>063-068>070-220800-
   Twin Cities Metro

CITY           SKY/WX    TMP DP  RH WIND       PRES   REMARKS
TWIN CITIES    CLEAR     25   4  40 NE8       30.55S WCI  16
ST PAUL        CLEAR     24   7  48 NE6       30.57R WCI  17
CRYSTAL        CLEAR     21   4  47 NE5       30.55R WCI  15
BLAINE         CLEAR     23   7  50 NE5       30.55S WCI  17
LAKEVILLE      CLEAR     21  10  63 NE5       30.54R WCI  15
EDEN PRAIRIE   CLEAR     24   6  46 N6        30.53S WCI  17
SOUTH ST PAUL  CLEAR     25   6  44 NE3       30.55S
LAKE ELMO      FAIR      21  10  63 CALM      30.56S
$$
MNZ001>005-007-008-013>017-022>024-027-028-220800-
   Northwest Minnesota

CITY           SKY/WX    TMP DP  RH WIND       PRES   REMARKS
BEMIDJI        CLOUDY     9   3  79 CALM      30.53S
HALLOCK        CLEAR     18   9  68 CALM      30.55F
ROSEAU         CLOUDY    16   9  73 E3        30.55F
WARROAD        CLOUDY    14   7  73 CALM      30.56S
THIEF RVR FALL CLEAR     19   9  65 SE9       30.54F WCI   8
CROOKSTON      CLEAR     21  10  63 E3        30.55F
FOSSTON        CLOUDY    12   5  73 E5        30.53F WCI   4
DETROIT LAKES  CLOUDY    19   5  53 SE5       30.52F WCI  13
MOORHEAD       CLEAR     19  12  73 E6        30.53F WCI  11
PARK RAPIDS    CLOUDY    16   0  49 E3        30.52S
MAHNOMEN       FAIR      15   9  76 E3        30.52F
$$
MNZ006-009>011-018-025>026-220800-
   North Central Minnesota

CITY           SKY/WX    TMP DP  RH WIND       PRES   REMARKS
BAUDETTE       CLOUDY    10   6  84 E3        30.54F
FLAG ISLAND    CLOUDY    12   3  67 CALM      30.55S
INTL FALLS     CLOUDY    10   3  73 CALM      30.55F
WASKISH        CLOUDY     9   7  92 CALM      30.55S
BIG FORK       CLOUDY     9   3  78 CALM      30.55S
LONGVILLE      CLOUDY    10   7  85 CALM      30.55S
GRAND RAPIDS   CLEAR     12   4  70 CALM      30.57R
CRANE LAKE     CLEAR      3   1  92 CALM      30.59R
ORR            CLOUDY     5   0  78 CALM      30.52F
COOK           CLOUDY     7   3  85 CALM      30.55S
WALKER         FAIR      10   5  80 CALM      30.53F
$$
MNZ012-019>021-037-220800-
   Northeast Minnesota

CITY           SKY/WX    TMP DP  RH WIND       PRES   REMARKS
DULUTH         CLEAR     16   4  59 N7        30.53S WCI   6
ELY            CLEAR      7   1  78 CALM      30.54S
HIBBING        CLEAR      7   2  80 CALM      30.55R
EVELETH        CLEAR     12   0  58 CALM      30.56R
DULUTH HARBOR  CLEAR     25   7  46 NE14      30.60R WCI  13
TWO HARBORS    CLEAR     14   5  67 CALM      30.54S
SILVER BAY     CLEAR     10   1  67 CALM      30.55R
GRAND MARAIS     N/A     18   0  45 CALM      30.60R
G MARAIS ARPRT CLEAR      7  -6  56 NW8       30.50R WCI  -6
$$
MNZ029>031-032-039>041-046>048-054>057-064-220800-
   West Central Minnesota

CITY           SKY/WX    TMP DP  RH WIND       PRES   REMARKS
FERGUS FALLS   CLOUDY    19   5  53 E7        30.56F WCI  10
WHEATON        CLOUDY    18  12  79 E3        30.54S
MORRIS         CLOUDY    19  10  68 E8        30.50F WCI   9
ALEXANDRIA     CLOUDY    18   5  57 E9        30.51F WCI   7
ELBOW LAKE     FAIR      19   8  63 SE8       30.51F WCI   9
WADENA         CLOUDY    16   3  57 E7        30.52F WCI   6
GLENWOOD       CLOUDY    18  10  73 NE9       30.51F WCI   6
APPLETON       CLOUDY    21  12  68 CALM      30.53R
BENSON         CLOUDY    21   7  53 SE7       30.53F WCI  13
ORTONVILLE     CLOUDY    19  14  79 E5        30.51F WCI  13
MADISON        CLOUDY    21  18  86 E3        30.53S
WILLMAR        FAIR      21  12  68 E8        30.53S WCI  12
$$
MNZ033>034-036-042>043-049>051-058-059-220800-
   Central Minnesota

CITY           SKY/WX    TMP DP  RH WIND       PRES   REMARKS
ST CLOUD       CLOUDY    17  13  84 CALM      30.55R
SAUK CENTRE    FAIR      19   6  56 NE5       30.53S WCI  12
PAYNESVILLE      N/A     19   9  67 NE5       30.53F WCI  12
AITKIN         CLEAR     12   7  79 CALM      30.55R
PINE RIVER     CLOUDY    16   3  57 NE5       30.56S WCI   9
BRAINERD       CLOUDY    13   8  81 NE3       30.55S
STAPLES        CLOUDY    12   5  73 CALM      30.54S
LONG PRAIRIE   FAIR      18   5  57 N6        30.53F WCI   9
LITTLE FALLS   CLOUDY    16   9  73 CALM      30.55F
LITCHFIELD     CLEAR     21  12  68 NE3       30.54S
BUFFALO        CLEAR     21   9  58 N5        30.56S WCI  15
MAPLE LAKE     CLEAR     21  13  71 N3        30.55F
HUTCHINSON     CLEAR     24  12  62 NE7       30.54S WCI  15
$$
MNZ037-044-045-052-053-220800-
   East Central Minnesota

CITY           SKY/WX    TMP DP  RH WIND       PRES   REMARKS
PRINCETON      CLOUDY    19  10  68 CALM      30.55S
MORA           CLOUDY    18   5  57 CALM      30.58S
CAMBRIDGE      CLEAR     19   9  63 CALM      30.55S
RUSH CITY      CLOUDY    19   4  52 NE5       30.57S WCI  12
MOOSE LAKE     PTCLDY    14   7  73 CALM      30.55S
HINCKLEY       FAIR      14  10  85 N5        30.57S WCI   6
CLOQUET        CLEAR     16   0  48 N3        30.55R
MCGREGOR       CLEAR     12   7  79 CALM      30.56S
$$
MNZ071>073-080-081-089-090-097-098-220800-
   Southwest Minnesota

CITY           SKY/WX    TMP DP  RH WIND       PRES   REMARKS
MONTEVIDEO     CLOUDY    18  12  79 CALM      30.54S
GRANITE FALLS  CLOUDY    24  13  63 E6        30.54S WCI  17
CANBY          CLOUDY    23  18  82 CALM      30.53S
MARSHALL       CLOUDY    23  14  68 E6        30.52R WCI  16
REDWOOD FALLS  PTCLDY    24   8  50 E7        30.52S WCI  16
OLIVIA         CLOUDY    21  12  68 E6        30.52S WCI  14
PIPESTONE      CLOUDY    25  16  68 NE6       30.46F WCI  18
WINDOM         CLEAR     21  14  73 NE6       30.49S WCI  14
WORTHINGTON    CLOUDY    23  17  78 E6        30.48R WCI  16
JACKSON        CLEAR     25  16  68 NE8       30.49R WCI  16
TRACY          CLOUDY    23  17  79 CALM      30.50S
SLAYTON        CLOUDY    23  17  78 E6        30.48S WCI  15
$$
MNZ065>067-074>077-082>085-091>093-220800-
   South Central Minnesota

CITY           SKY/WX    TMP DP  RH WIND       PRES   REMARKS
MANKATO        CLEAR     24  13  62 NE8       30.52S WCI  15
NEW ULM        PTCLDY    23   9  54 NE5       30.52S WCI  17
ST JAMES       CLEAR     25  16  68 CALM      30.52S
GLENCOE        CLEAR     23  13  65 NE3       30.53S
FARIBAULT      CLEAR     23  10  58 CALM      30.52R
OWATONNA       CLEAR     23  10  58 NE7       30.50S WCI  15
WASECA         CLEAR     25  12  58 NE7       30.52S WCI  17
ALBERT LEA     CLEAR     25  12  58 NE10      30.48S WCI  15
$$
MNZ078>079-086>088-094>096-220800-
   Southeast Minnesota

CITY           SKY/WX    TMP DP  RH WIND       PRES   REMARKS
ROCHESTER      CLEAR     23  11  60 NE12      30.49R WCI  12
RED WING       CLEAR     25   7  46 NE5       30.54R WCI  19
STANTON        CLEAR     25  15  67 NE6       30.52S WCI  18
DODGE CENTER   PTCLDY    23  14  68 NE5       30.49R WCI  17
WINONA         CLEAR     30  14  51 NE5       30.55R WCI  25
AUSTIN         CLEAR     25  12  58 NE6       30.49R WCI  18
PRESTON        CLEAR     24  11  59 NE10      30.48S WCI  13
$$
ABBREVIATIONS USED IN REMARKS
   TC - TEMPERATURES IN CELSIUS
  WCI - WIND CHILL INDEX
   HX - HEAT INDEX
  VSB - VISIBILITY
$$




USA.gov is the U.S. government's official web portal to all federal, state and local government web resources and services.